Location: Newark
(7.0858°N, 171.3717°E)
Time: 01:06:51
(UTC+00:00)

Transit 2A - Pass Details

Date: 01 December 2020
Orbit: 598 x 960 km, 66.7° (Epoch: 20 January)

Event Time Altitude Azimuth Distance (km) Brightness Sun altitude
Rises 14:52:14 0° 359° (N) 2,982 - -51.3°
Reaches altitude 10° 14:54:56 10° 12° (NNE) 2,022 - -50.7°
Maximum altitude 14:58:39 25° 68° (ENE) 1,247 - -49.8°
Drops below altitude 10° 15:02:13 10° 123° (ESE) 1,940 - -49.0°
Sets 15:04:44 0° 137° (SE) 2,833 - -48.5°
